RH
98 92 72 76 75 81 88 76 80 85 73 65 55 49 37 31 26 30 37 38 38 31 31 18 15 19 20 11 9 18 24 45 46 41 41 50 96 97 98 98 98 98 97 100
88 73 99 94 93 95 86 74 78 89 82 67 67 47 43 44 24 27 38 43 38 35 31 17 19 15 14 12 9 15 44 43 51 33 47 45 85 97 97 97 99 98 98 96
84 98 97 87 100 96 88 84 96 100 78 71 64 44 50 50 36 29 44 37 38 41 32 17 18 18 16 14 9 12 44 44 48 39 38 76 48 86 96 96 95 94 95 96
84 98 94 88 100 98 80 99 100 96 86 78 59 51 46 59 48 24 40 32 35 41 30 19 17 16 16 12 10 8 13 49 59 51 59 70 87 78 95 97 97 94 95 91
96 100 97 94 100 95 90 94 100 98 76 69 69 56 52 53 49 25 30 30 27 34 38 20 16 15 15 15 17 11 7 8 26 50 80 85 94 97 90 88 81 83 88 95
99 97 92 88 99 98 96 100 100 87 91 63 73 68 47 60 52 26 22 19 17 30 49 42 17 16 16 16 16 15 14 7 6 8 14 24 39 52 69 86 98 98 94 96
99 98 99 92 94 96 90 94 99 86 80 64 66 66 52 66 57 28 23 20 20 28 41 57 22 19 20 21 21 19 18 20 20 8 6 9 14 19 35 80 97 98 91 100
96 96 97 98 95 100 97 90 96 88 86 76 72 66 57 77 64 41 23 25 25 30 40 43 21 20 23 23 23 19 19 23 33 27 22 10 12 18 23 26 71 86 84 80
100 98 96 97 96 97 98 83 98 96 94 84 84 68 59 74 75 65 28 26 30 30 47 46 40 32 42 28 25 22 21 20 35 41 25 26 23 18 17 23 32 39 45 46
97 97 96 97 96 96 89 93 98 97 94 97 85 77 67 71 84 72 50 22 26 29 46 57 54 44 44 34 40 26 23 26 37 55 53 27 27 27 28 23 20 19 19 19
99 99 98 86 87 100 100 94 93 97 99 100 100 98 67 78 84 77 55 28 31 38 59 59 59 48 38 56 56 34 29 28 25 28 32 57 48 55 61 66 50 52 50 46
89 98 99 98 70 85 96 95 96 100 100 100 100 100 79 76 82 76 54 33 52 53 49 50 59 59 46 59 52 44 37 40 29 30 21 31 43 51 49 71 70 72 60 70
97 80 93 89 86 81 92 94 97 97 100 95 87 91 83 77 75 96 57 45 57 80 90 92 95 92 65 58 65 66 56 50 48 34 37 26 30 31 33 47 66 72 86 80
65 93 56 52 57 72 83 99 98 98 94 96 89 85 84 87 94 93 93 58 53 80 84 97 98 94 86 82 75 74 56 59 58 46 50 44 41 43 36 28 25 24 32 27
57 37 74 87 34 31 48 58 69 69 88 92 91 80 82 76 84 87 85 99 91 65 67 78 86 95 94 96 100 93 77 69 61 53 54 63 61 53 45 31 30 27 29 36
31 78 46 40 66 95 94 79 74 70 73 75 71 73 68 77 73 77 78 79 93 94 73 62 93 95 100 97 87 79 63 56 68 65 74 73 62 56 59 69 56 48 49 49
93 78 73 89 56 29 26 44 83 97 74 68 68 73 62 60 55 48 62 68 82 84 99 93 77 67 73 70 50 49 63 64 63 83 84 73 45 61 77 77 82 80 78 69
96 97 93 92 79 61 42 36 32 34 38 32 44 46 38 39 46 60 54 60 66 72 83 90 98 96 92 76 73 60 44 54 75 95 82 66 60 68 79 85 86 90 96 92
72 89 100 100 94 60 40 63 100 79 74 81 48 32 36 43 42 56 37 35 35 40 45 69 82 91 97 97 95 95 79 61 75 82 85 63 79 84 76 48 31 31 47 57
36 54 63 60 63 37 34 55 90 70 86 48 78 71 47 52 64 71 49 36 28 21 18 39 70 75 79 92 98 97 94 77 81 96 88 76 83 97 92 82 72 54 56 87
22 19 16 18 16 15 53 68 68 68 58 52 54 66 63 68 62 67 67 70 64 55 36 19 20 35 49 74 91 99 97 93 82 89 96 94 93 97 100 94 94 79 88 70
39 26 21 23 21 26 24 24 22 29 28 27 24 28 28 20 13 18 37 46 51 63 67 55 46 26 33 51 77 90 97 98 94 95 94 97 94 100 100 100 92 99 81 76
59 50 44 39 36 30 25 26 23 19 18 16 15 16 17 18 18 14 11 11 19 49 48 66 81 83 62 66 72 66 79 95 98 90 93 100 100 100 99 100 100 93 95 83
44 41 35 35 30 26 22 20 21 20 18 16 15 13 12 12 18 19 15 13 14 19 31 65 72 67 70 78 78 66 66 89 94 97 98 97 97 98 96 90 83 99 100 100
38 35 34 32 33 27 24 24 24 24 23 22 21 18 14 13 11 18 35 57 53 39 86 42 62 100 98 83 84 88 94 89 92 89 95 96 87 93 93 87 80 76 86 95
50 47 41 37 41 42 33 41 36 34 32 31 32 29 24 15 13 15 37 58 89 87 100 80 66 99 99 100 97 90 82 73 76 97 94 94 100 96 96 100 96 94 84 83
Wind_Speed
38 39 37 26 28 26 24 27 25 27 27 21 17 13 16 17 13 17 16 14 17 20 16 13 14 12 11 11 9 10 16 21 21 22 20 20 21 30 34 34 29 30 27 33
43 42 31 31 33 30 28 30 26 25 24 25 20 16 14 18 15 16 13 14 17 19 18 12 12 12 10 10 10 11 20 18 25 28 26 23 22 28 31 30 32 32 31 32
44 36 34 34 35 32 28 29 24 22 23 26 21 19 16 16 13 16 16 15 17 17 19 11 12 11 10 8 9 11 15 5 17 28 27 25 23 23 28 22 26 26 24 24
44 40 37 38 37 31 32 28 28 25 25 25 22 20 10 12 14 16 19 16 18 16 18 12 10 11 8 7 8 8 9 10 3 18 19 22 21 25 23 14 19 22 19 28
42 42 39 36 31 33 26 35 30 27 28 29 23 20 11 12 16 16 18 19 21 17 14 13 8 8 6 4 5 6 5 4 2 5 10 17 26 25 25 29 27 25 27 26
41 42 42 42 36 35 36 38 33 31 32 30 24 18 13 9 15 17 19 21 19 16 15 13 11 8 7 5 5 6 5 3 3 4 5 5 6 11 19 29 28 27 30 33
40 43 42 42 41 39 39 38 35 36 41 29 31 17 17 13 13 17 17 17 17 18 13 14 13 10 8 7 9 7 7 6 5 6 7 7 8 10 8 14 30 29 24 26
36 40 42 46 41 36 34 34 35 40 40 30 36 27 18 14 13 16 20 18 17 19 15 16 15 12 10 11 12 9 8 9 8 6 8 10 9 10 9 7 6 11 15 16
37 35 38 46 44 39 39 45 40 40 41 37 39 34 17 18 15 12 15 18 17 20 16 16 18 17 13 14 15 12 11 10 9 9 13 10 9 11 12 12 11 15 15 15
34 34 32 32 41 43 43 45 42 43 43 42 38 34 20 17 17 12 15 17 22 20 22 21 19 23 17 15 15 14 13 9 9 8 10 15 14 13 13 14 16 19 21 21
28 29 33 31 35 33 39 42 42 44 43 40 34 31 23 21 18 14 16 17 18 21 24 24 22 22 21 16 14 16 12 12 12 12 11 11 14 16 15 14 18 21 20 21
24 28 28 31 31 31 33 37 39 42 41 41 39 32 31 21 16 15 18 19 19 19 21 24 24 24 24 18 15 17 15 14 15 14 14 12 15 15 15 16 21 21 23 23
24 30 31 30 37 37 33 34 36 39 39 44 39 38 34 27 21 19 20 22 22 21 22 25 27 28 28 27 24 21 23 20 21 20 17 18 18 17 16 17 19 22 26 27
32 24 30 34 37 37 32 32 32 34 36 36 37 37 35 28 28 27 28 28 26 28 29 30 31 33 30 29 29 27 26 28 27 26 22 21 22 24 25 26 24 23 25 25
34 34 28 32 34 36 35 34 33 35 34 36 36 37 35 32 27 29 28 28 31 33 33 35 34 34 34 31 31 32 34 34 35 32 34 31 30 29 31 28 27 27 26 26
44 37 34 32 30 32 34 32 29 30 31 35 36 37 39 35 33 32 33 31 32 36 39 38 37 37 35 35 35 37 37 36 37 37 38 36 34 31 31 30 30 31 29 29
42 40 39 35 35 36 36 31 31 33 31 32 34 37 40 39 38 36 34 37 37 35 36 40 42 41 41 39 39 40 40 40 39 39 41 40 37 34 35 37 37 35 35 36
44 41 39 36 31 38 38 33 34 34 35 40 41 41 41 42 43 41 40 35 37 37 38 37 37 41 41 41 42 38 39 40 43 43 44 37 36 32 34 37 41 41 42 42
46 46 39 37 39 40 38 33 27 29 33 33 37 43 46 45 44 43 47 43 43 41 42 41 38 36 32 33 43 40 37 38 42 40 41 36 33 34 35 35 37 42 46 43
48 47 45 45 46 42 38 37 36 31 33 39 40 42 44 44 41 39 44 46 45 43 44 43 40 37 38 39 37 40 37 34 36 38 40 40 38 40 39 38 37 36 38 36
30 35 36 39 40 40 33 36 37 39 40 38 40 44 44 44 47 46 46 44 44 41 39 40 45 44 42 39 42 42 42 39 38 40 41 42 43 44 44 43 43 43 40 43
20 19 18 18 19 20 18 19 21 25 24 25 28 32 37 39 44 51 55 54 51 45 40 38 38 43 46 42 44 46 46 47 44 43 45 45 44 49 49 49 49 48 47 45
20 18 18 19 20 19 17 16 15 14 14 15 18 24 31 35 35 36 37 39 49 53 50 44 41 42 46 46 43 46 44 48 49 48 54 52 48 51 54 56 55 49 51 48
22 21 20 18 19 19 20 18 17 18 19 19 20 22 25 29 31 31 34 39 39 42 51 45 43 44 46 46 47 47 46 46 48 52 53 49 47 51 52 52 51 56 65 66
23 21 21 20 21 22 23 24 24 25 25 25 27 28 26 27 31 32 33 36 37 42 38 47 42 48 48 44 46 48 47 48 49 51 50 48 49 50 51 53 54 55 59 66
22 22 24 25 25 27 27 27 28 30 31 32 33 33 33 32 33 34 36 34 34 31 38 38 40 47 49 54 47 48 50 48 50 51 49 52 48 50 54 64 63 58 54 58
Wind_Direction
215 219 222 226 236 237 241 240 245 252 262 257 253 248 266 280 267 263 274 279 289 288 297 307 308 316 327 328 311 306 295 282 257 229 229 224 229 203 201 205 197 198 201 204
215 221 216 219 229 230 232 240 246 256 261 258 252 239 251 272 273 268 263 276 289 283 284 302 304 304 309 326 323 325 321 280 232 221 221 216 215 183 182 188 191 202 208 210
217 217 218 218 228 228 231 243 249 247 249 256 246 243 242 268 272 274 262 266 276 283 280 291 302 302 313 326 339 341 357 308 219 210 218 212 226 249 216 202 213 212 218 222
222 220 214 217 224 226 228 241 242 242 247 255 243 246 245 253 269 271 257 253 262 268 279 279 294 305 313 331 331 346 2 39 200 206 218 229 240 231 243 242 244 224 252 234
223 219 218 221 225 229 222 234 240 240 242 248 256 263 247 243 263 260 246 246 254 256 265 272 274 284 308 328 326 329 339 359 64 204 255 261 238 235 234 228 223 242 245 249
216 215 217 216 221 223 223 233 238 240 244 246 250 251 246 242 254 261 248 243 253 254 248 270 266 262 283 307 335 346 328 305 278 268 270 261 266 253 254 235 231 244 242 247
218 216 220 216 220 224 223 230 238 242 247 249 257 245 245 244 253 265 262 255 255 250 246 264 260 258 264 292 313 317 321 327 301 272 254 251 248 257 276 239 228 243 236 237
227 224 222 221 219 225 230 234 238 246 251 254 259 250 241 249 241 249 258 254 253 250 245 249 245 249 264 278 300 300 321 309 289 259 257 245 250 257 264 270 236 226 227 230
224 225 223 223 211 218 219 225 231 241 249 247 252 256 237 241 252 247 251 250 253 248 240 241 259 251 259 271 283 282 291 289 284 275 252 252 252 240 241 240 243 232 237 250
227 222 216 218 217 219 222 226 227 235 239 244 249 256 245 247 254 248 245 245 245 245 236 240 260 266 253 261 269 274 279 285 279 277 270 251 249 254 250 245 235 233 239 245
230 224 219 217 219 220 228 230 231 236 240 244 249 255 241 237 250 243 234 233 234 233 237 243 249 257 259 260 257 261 267 272 284 281 273 258 254 256 260 270 264 263 258 260
236 229 223 216 227 224 223 222 223 232 241 244 247 247 255 242 242 234 233 226 219 230 236 241 243 249 250 249 254 259 264 275 270 272 281 273 272 268 271 274 251 250 252 262
238 234 229 231 229 230 228 233 232 235 238 244 248 252 247 247 233 224 226 224 215 219 227 234 238 243 248 248 259 265 265 261 272 271 267 275 284 282 280 271 266 263 265 274
237 242 226 229 237 239 239 240 239 237 241 247 250 254 254 251 246 232 225 224 221 222 220 218 229 241 249 250 254 263 264 260 263 262 265 269 271 271 263 269 272 270 271 273
229 238 236 227 234 237 241 244 246 251 251 251 256 259 261 258 253 253 244 235 236 235 233 235 237 242 246 247 256 264 269 266 266 255 263 272 271 268 258 259 259 258 263 270
229 226 236 231 234 238 241 241 248 252 254 255 257 262 262 262 257 251 254 254 244 230 236 232 233 238 244 250 257 260 266 267 262 263 266 269 269 270 261 255 254 257 263 270
226 233 231 235 240 237 239 244 247 253 256 257 258 259 262 265 265 262 253 254 257 248 242 237 240 240 242 245 250 254 257 260 263 262 268 269 268 267 260 260 264 265 267 269
229 235 237 239 242 245 245 249 248 250 255 258 262 264 265 266 267 266 263 256 257 259 259 249 245 242 242 247 246 249 249 253 257 261 262 260 267 266 265 266 266 266 266 268
230 228 231 234 234 241 249 250 248 250 255 256 257 258 261 263 267 269 267 263 262 261 260 258 253 254 252 250 243 245 245 250 251 249 254 256 254 259 266 269 272 272 271 270
232 234 234 240 245 248 251 250 251 256 260 251 253 256 258 260 262 263 270 273 272 267 264 264 264 258 257 256 254 250 240 243 244 245 252 255 256 258 270 274 275 281 270 270
229 236 240 244 246 245 247 246 247 253 260 262 258 258 262 266 266 267 269 270 275 277 273 266 265 262 264 260 254 256 252 244 242 246 250 252 255 257 262 270 274 278 275 270
216 215 215 219 225 226 225 232 236 241 247 253 261 264 269 276 277 272 267 266 266 267 274 270 261 260 259 255 255 255 257 256 246 248 252 254 256 257 260 265 271 274 272 270
206 204 204 204 210 217 218 219 228 237 251 262 270 272 269 269 272 276 279 277 271 266 265 263 255 250 252 252 249 249 254 252 254 255 253 251 252 255 261 260 265 271 273 273
202 205 210 215 224 226 229 234 243 248 257 267 274 275 277 281 275 274 282 276 270 265 267 259 258 255 252 252 254 255 253 249 251 255 259 263 260 260 260 262 264 264 265 267
216 214 221 228 235 237 240 247 254 259 264 268 272 276 284 288 287 277 279 280 275 265 254 255 257 248 244 244 252 256 255 257 260 258 256 255 262 260 259 260 259 262 262 275
229 236 241 244 247 252 253 258 261 265 268 270 274 277 280 283 286 270 269 278 280 266 263 249 253 238 245 245 249 256 262 262 260 254 262 264 263 261 263 266 261 264 264 273